[[{"header":{"parameterUnit":"m.s-1","parameterCategory":1,"la1":30.2991,"la2":30.254,"lo1":-89.0895,"lo2":-89.0444,"dy":0.0017,"dx":0.0017,"nx":28,"ny":28,"refTime":"2024-04-23T03:00:00:Z","depth":0,"parameterNumber":2,"parameterNumberName":"U-component_of_WINDS"},"data":[0,0,0,0,0,0,0,0,0,0,0,0,0,0,0,0,0,0,0,0,0,0,0,0,0,0,0,0,0,0,0,0,0,0,0,0,0,0,0,0,0,0,0,0,0,0,0,0,0,0,0,0,0,0,0,0,0,0,-3.2684,-3.2685,0,-3.2738,-3.2739,-3.2739,-3.2671,-3.2669,-3.2666,-3.2664,-3.2716,-3.2719,-3.2723,0,0,0,0,0,0,0,0,0,0,0,0,0,-3.252,-3.2523,-3.2684,-3.2685,-3.2686,-3.2738,-3.2739,-3.2739,-3.2671,-3.2668,-3.2665,-3.2663,-3.2715,-3.2719,-3.2723,0,0,0,0,0,0,0,0,0,0,0,0,0,-3.2584,-3.2524,-3.2684,-3.2658,-3.2656,-3.2738,-3.2739,-3.274,-3.2672,-3.2668,-3.2665,-3.2661,-3.2713,-3.2719,-3.2724,-3.2833,0,0,-3.2741,-3.2743,0,0,0,0,0,0,0,0,-3.2581,-3.259,-3.2661,-3.266,-3.2658,-3.2694,-3.27,-3.2771,-3.2673,-3.2666,-3.2664,-3.2659,-3.2711,-3.2717,-3.2735,-3.2835,-3.2837,-3.2741,-3.2745,-3.2747,-3.2749,0,0,0,0,0,0,0,-3.2576,-3.2587,-3.2705,-3.2662,-3.2661,-3.2643,-3.2648,-3.2713,-3.2709,-3.2666,-3.2662,-3.2669,-3.271,-3.273,-3.2736,-3.2838,-3.2741,-3.2746,-3.275,-3.2752,-3.3028,-3.3032,0,0,0,0,0,0,-3.2575,-3.2584,-3.2704,-3.2707,-3.261,-3.2649,-3.2654,-3.2686,-3.2708,-3.2708,-3.2672,-3.2666,-3.2722,-3.2729,-3.2737,-3.2864,-3.2747,-3.2752,-3.2756,-3.3024,-3.3029,-3.3034,0,0,0,0,0,0,-3.2572,-3.2587,-3.2702,-3.2644,-3.2658,-3.2656,-3.2692,-3.2689,-3.2709,-3.2712,-3.2711,-3.2693,-3.272,-3.2729,-3.2809,-3.2865,-3.2755,-3.276,-3.302,-3.3026,-3.3031,-3.312,0,0,0,0,0,0,-3.2568,-3.2586,-3.2628,-3.2646,-3.2661,-3.2774,-3.2695,-3.2693,-3.2719,-3.2711,-3.2732,-3.2732,-3.2717,-3.2801,-3.2815,-3.2871,-3.2764,-3.3014,-3.3022,-3.3029,-3.3112,-3.3128,-3.3142,0,0,0,0,0,-3.2562,-3.265,-3.263,-3.2645,-3.2714,-3.2777,-3.2786,-3.2768,-3.2724,-3.2765,-3.2767,-3.2731,-3.2858,-3.281,-3.2825,-3.2883,-3.3011,-3.302,-3.3029,-3.3105,-3.3125,-3.3142,0,0,0,0,0,0,-3.2638,-3.2652,-3.263,-3.2727,-3.2752,-3.2766,-3.2817,-3.279,-3.2826,-3.2817,-3.2793,-3.2798,-3.2883,-3.2891,-3.2838,-3.2989,-3.2927,-3.2939,-3.298,-3.2999,-3.3013,-3.3008,-3.2769,0,0,0,0,0,-3.2666,-3.2717,-3.2727,-3.2812,-3.2825,-3.282,-3.2847,-3.2831,-3.2855,-3.2864,-3.2872,-3.2896,-3.294,-3.297,-3.3012,-3.3114,-3.3116,-3.3161,-3.3176,-3.3188,-3.3199,-3.3251,-3.327,-3.3063,-3.3063,-3.3063,0,0,-3.2724,-3.2739,-3.2772,-3.2827,-3.2844,-3.2897,-3.2828,-3.2887,-3.2925,-3.2873,-3.2948,-3.2955,-3.298,-3.3071,-3.3111,-3.308,-3.3257,-3.32,-3.321,-3.3213,-3.3262,-3.3282,-3.3299,-3.3069,-3.3068,-3.3067,0,0,-3.2856,-3.2874,-3.2945,-3.2964,-3.2991,-3.2987,-3.3004,-3.3023,-3.3025,-3.3101,-3.3062,-3.3107,-3.3186,-3.3204,-3.3224,-3.3364,-3.3331,-3.3379,-3.3456,-3.3508,-3.3524,-3.3538,-3.3586,-3.3603,-3.3389,-3.3389,-3.339,0,-3.2925,-3.3003,-3.2985,-3.3047,-3.3071,-3.3028,-3.3099,-3.3118,-3.3157,-3.3174,-3.3139,-3.3236,-3.325,-3.3343,-3.3378,-3.3396,-3.3413,-3.3375,-3.3523,-3.3537,-3.355,-3.3595,-3.3614,-3.3395,-3.3394,-3.3394,-3.3393,0,-3.3085,-3.314,-3.3195,-3.3234,-3.3265,-3.3331,-3.3322,-3.3355,-3.3337,-3.3336,-3.3413,-3.3429,-3.3472,-3.3493,-3.3477,-3.3585,-3.3564,-3.3527,-3.3464,-3.3576,-3.3618,-3.3635,-3.3402,-3.3401,-3.3399,-3.3398,0,0,-3.3264,-3.3294,-3.3314,-3.333,-3.3358,-3.3399,-3.3463,-3.3506,-3.3534,-3.3563,-3.3614,-3.3682,-3.3647,-3.367,-3.3655,-3.3701,-3.3808,-3.3657,-3.3658,-3.3683,-3.3925,-3.3951,-3.3971,-3.3788,-3.3791,-3.3794,-3.3922,0,-3.3395,-3.3506,-3.3492,-3.3597,-3.3647,-3.3607,-3.3662,-3.3684,-3.3685,-3.3726,-3.3727,-3.3775,-3.3727,-3.374,-3.3784,-3.3786,-3.3856,-3.3777,-3.3833,-3.3835,-3.3825,-3.3993,-3.4021,-3.4141,-3.3939,-3.3942,-3.3944,0,-3.3561,-3.3597,-3.3707,-3.3726,-3.3746,-3.3796,-3.3834,-3.3875,-3.3899,-3.3896,-3.3922,-3.3899,-3.3961,-3.3899,-3.3984,-3.393,-3.3953,-3.3957,-3.3962,-3.3964,-3.3894,-3.3997,-3.418,-3.4197,-3.397,-3.3968,-3.3966,0,-3.3677,-3.3753,-3.3829,-3.3845,-3.3869,-3.3905,-3.3916,-3.3937,-3.3963,-3.3996,-3.4013,-3.4053,-3.4074,-3.4105,-3.4093,-3.405,-3.4179,-3.4117,-3.4177,-3.4177,-3.4203,-3.4201,-3.4389,-3.4224,-3.4223,-3.4223,-3.4222,0,-3.3823,-3.3891,-3.3881,-3.3927,-3.4003,-3.3986,-3.406,-3.4067,-3.4086,-3.4131,-3.41,-3.4144,-3.4126,-3.4168,-3.4159,-3.4229,-3.424,-3.4238,-3.4234,-3.4239,-3.4239,-3.4251,-3.4242,-3.4228,-3.4227,-3.4226,-3.4225,0,-3.3964,-3.396,-3.4039,-3.4057,-3.4062,-3.4117,-3.4131,-3.4173,-3.4173,-3.4231,-3.4244,-3.4243,-3.429,-3.4282,-3.4335,-3.4329,-3.4416,-3.4404,-3.4408,-3.4404,-3.4463,-3.4457,-3.4663,-3.4688,-3.4509,-3.4511,-3.4512,0,-3.4055,-3.4107,-3.413,-3.4159,-3.4173,-3.4221,-3.4248,-3.4233,-3.4263,-3.4294,-3.4332,-3.4378,-3.4413,-3.4491,-3.4494,-3.4534,-3.452,-3.459,-3.4526,-3.4529,-3.4518,-3.4514,-3.4518,-3.4602,-3.4604,-3.4605,-3.4607,0,-3.4217,-3.4212,-3.4253,-3.4294,-3.4327,-3.4358,-3.4386,-3.4411,-3.4399,-3.4433,-3.4482,-3.451,-3.4564,-3.4609,-3.4646,-3.4657,-3.4629,-3.4627,-3.4643,-3.4647,-3.4646,-3.4644,-3.4439,-3.4622,-3.462,-3.4619,-3.4618,-3.4618,-3.4334,-3.4377,-3.44,-3.4446,-3.4466,-3.4493,-3.4533,-3.4538,-3.4579,-3.4623,-3.4612,-3.4667,-3.4689,-3.4736,-3.4752,-3.4793,-3.4767,-3.4791,-3.4796,-3.4801,-3.4807,-3.4642,-3.4801,-3.48,-3.48,-3.4799,-3.4799,0,-3.4491,-3.4504,-3.4547,-3.4587,-3.4623,-3.4596,-3.4626,-3.4657,-3.4706,-3.473,-3.4765,-3.4821,-3.4864,-3.4871,-3.4912,-3.4944,-3.4932,-3.4955,-3.4951,-3.4953,-3.4829,-3.481,-3.4964,-3.4964,-3.4964,-3.4964,-3.4964,-3.4964,-3.4577,-3.4648,-3.4647,-3.4728,-3.474,-3.4794,-3.4813,-3.4837,-3.4855,-3.4919,-3.4956,-3.4961,-3.4977,-3.5019,-3.5057,-3.5058,-3.5073,-3.51,-3.5096,-3.4979,-3.4962,-3.4946,-3.4928,-3.5104,-3.5104,-3.5216,-3.5217,-3.5217]},{"header":{"parameterUnit":"m.s-1","parameterCategory":1,"la1":30.2991,"la2":30.254,"lo1":-89.0895,"lo2":-89.0444,"dy":0.0017,"dx":0.0017,"nx":28,"ny":28,"refTime":"2024-04-23T03:00:00:Z","depth":0,"parameterNumber":3,"parameterNumberName":"V-component_of_WINDS"},"data":[0,0,0,0,0,0,0,0,0,0,0,0,0,0,0,0,0,0,0,0,0,0,0,0,0,0,0,0,0,0,0,0,0,0,0,0,0,0,0,0,0,0,0,0,0,0,0,0,0,0,0,0,0,0,0,0,0,0,-0.7291,-0.7292,0,-0.7345,-0.7346,-0.7346,-0.7415,-0.7416,-0.7417,-0.7418,-0.747,-0.747,-0.7471,0,0,0,0,0,0,0,0,0,0,0,0,0,-0.7244,-0.7245,-0.7291,-0.7292,-0.7293,-0.7345,-0.7346,-0.7347,-0.7415,-0.7416,-0.7418,-0.7419,-0.747,-0.747,-0.7471,0,0,0,0,0,0,0,0,0,0,0,0,0,-0.7278,-0.7245,-0.7291,-0.7333,-0.7338,-0.7345,-0.7346,-0.7347,-0.7415,-0.7416,-0.7418,-0.742,-0.747,-0.747,-0.7471,-0.744,0,0,-0.7472,-0.7472,0,0,0,0,0,0,0,0,-0.7276,-0.7279,-0.7326,-0.733,-0.7335,-0.7375,-0.7348,-0.7378,-0.7414,-0.7385,-0.7418,-0.742,-0.7437,-0.744,-0.7446,-0.7442,-0.7445,-0.7472,-0.7472,-0.7473,-0.7473,0,0,0,0,0,0,0,-0.7273,-0.7277,-0.7313,-0.7327,-0.7332,-0.7348,-0.7355,-0.7354,-0.7401,-0.7388,-0.7393,-0.7399,-0.7439,-0.7446,-0.7448,-0.7445,-0.7472,-0.7473,-0.7473,-0.7473,-0.7417,-0.7416,0,0,0,0,0,0,-0.7265,-0.7275,-0.7311,-0.7314,-0.7309,-0.7348,-0.7355,-0.7361,-0.7401,-0.7409,-0.7397,-0.7402,-0.7444,-0.7447,-0.745,-0.7416,-0.7473,-0.7473,-0.7473,-0.7419,-0.7417,-0.7415,0,0,0,0,0,0,-0.7264,-0.7268,-0.7309,-0.7296,-0.7303,-0.7347,-0.7352,-0.7361,-0.7367,-0.7408,-0.7416,-0.7395,-0.7446,-0.7449,-0.7442,-0.7419,-0.7473,-0.7474,-0.7421,-0.7418,-0.7416,-0.7347,0,0,0,0,0,0,-0.7262,-0.7267,-0.7257,-0.7295,-0.7303,-0.73,-0.7351,-0.7361,-0.7368,-0.7375,-0.7408,-0.7416,-0.7447,-0.7441,-0.7442,-0.742,-0.7474,-0.7423,-0.742,-0.7417,-0.7352,-0.7343,-0.7335,0,0,0,0,0,-0.726,-0.7235,-0.7256,-0.726,-0.7291,-0.7299,-0.7303,-0.7341,-0.7366,-0.7355,-0.7382,-0.7415,-0.7421,-0.7439,-0.7442,-0.7419,-0.7425,-0.7421,-0.7417,-0.7356,-0.7344,-0.7335,0,0,0,0,0,0,-0.7191,-0.7241,-0.7265,-0.7251,-0.727,-0.7311,-0.7299,-0.7328,-0.734,-0.7345,-0.7391,-0.7398,-0.7384,-0.7401,-0.7421,-0.7391,-0.7428,-0.7424,-0.738,-0.737,-0.7362,-0.7357,-0.7475,0,0,0,0,0,-0.7175,-0.7178,-0.7221,-0.7204,-0.7213,-0.7254,-0.7259,-0.7286,-0.7308,-0.7316,-0.7342,-0.736,-0.7366,-0.7369,-0.7377,-0.7355,-0.7362,-0.7341,-0.7332,-0.7325,-0.7321,-0.7308,-0.7298,-0.7402,-0.7402,-0.7402,0,0,-0.714,-0.7167,-0.7167,-0.7191,-0.721,-0.7211,-0.726,-0.726,-0.726,-0.7316,-0.731,-0.7329,-0.7353,-0.7337,-0.7332,-0.7351,-0.7294,-0.732,-0.7314,-0.7313,-0.7303,-0.7293,-0.7284,-0.7399,-0.74,-0.74,0,0,-0.7077,-0.7099,-0.7087,-0.7104,-0.7132,-0.7159,-0.7156,-0.7192,-0.7207,-0.7202,-0.7243,-0.7244,-0.7254,-0.7269,-0.7278,-0.7219,-0.7249,-0.7221,-0.7175,-0.7163,-0.7155,-0.7148,-0.7125,-0.7117,-0.7217,-0.7216,-0.7216,0,-0.703,-0.7035,-0.7077,-0.7074,-0.7082,-0.7133,-0.7121,-0.7135,-0.7163,-0.7167,-0.7189,-0.7202,-0.7222,-0.7209,-0.7195,-0.7201,-0.7198,-0.7216,-0.7153,-0.7146,-0.714,-0.7119,-0.7111,-0.7213,-0.7213,-0.7213,-0.7214,0,-0.6974,-0.6977,-0.6964,-0.699,-0.6998,-0.699,-0.703,-0.7032,-0.7058,-0.7083,-0.7076,-0.7102,-0.7115,-0.7114,-0.714,-0.7105,-0.7116,-0.7145,-0.7182,-0.7126,-0.7106,-0.7099,-0.7207,-0.7209,-0.721,-0.7211,0,0,-0.6869,-0.6919,-0.6913,-0.6925,-0.6959,-0.6961,-0.6954,-0.6969,-0.6969,-0.6986,-0.6981,-0.6988,-0.7014,-0.7024,-0.7052,-0.7041,-0.6991,-0.707,-0.7072,-0.7053,-0.6951,-0.6929,-0.6919,-0.7011,-0.701,-0.7009,-0.6949,0,-0.6811,-0.6804,-0.6842,-0.6824,-0.6825,-0.6874,-0.6868,-0.6887,-0.6909,-0.6913,-0.6937,-0.6941,-0.6976,-0.6982,-0.6974,-0.6998,-0.697,-0.7004,-0.7005,-0.7004,-0.6996,-0.6909,-0.6886,-0.6828,-0.6942,-0.6941,-0.694,0,-0.6743,-0.6757,-0.6739,-0.6773,-0.6775,-0.6769,-0.6784,-0.6788,-0.681,-0.6827,-0.6837,-0.6869,-0.6864,-0.69,-0.6892,-0.6914,-0.6917,-0.6929,-0.6927,-0.6928,-0.6968,-0.6906,-0.681,-0.6801,-0.6929,-0.693,-0.6931,0,-0.6665,-0.668,-0.6671,-0.668,-0.672,-0.6714,-0.673,-0.6754,-0.6759,-0.6772,-0.6776,-0.6788,-0.6793,-0.6801,-0.6835,-0.6859,-0.6822,-0.6862,-0.6834,-0.6833,-0.6823,-0.6823,-0.6725,-0.6827,-0.6827,-0.6827,-0.6828,0,-0.6596,-0.6583,-0.6637,-0.6631,-0.6618,-0.666,-0.6645,-0.6666,-0.6686,-0.6684,-0.6727,-0.6723,-0.6769,-0.6771,-0.6797,-0.6785,-0.6788,-0.68,-0.6807,-0.6795,-0.6793,-0.6797,-0.6801,-0.6825,-0.6826,-0.6826,-0.6827,0,-0.6507,-0.6543,-0.6536,-0.6574,-0.6583,-0.6571,-0.6603,-0.6598,-0.6623,-0.662,-0.6622,-0.666,-0.6664,-0.6699,-0.671,-0.6728,-0.6705,-0.6721,-0.6698,-0.6702,-0.6672,-0.6674,-0.6572,-0.656,-0.667,-0.6669,-0.6668,0,-0.6459,-0.6451,-0.6487,-0.649,-0.6504,-0.6507,-0.6513,-0.6554,-0.6558,-0.6582,-0.6574,-0.6582,-0.659,-0.6593,-0.6621,-0.663,-0.6645,-0.6608,-0.6646,-0.6634,-0.6642,-0.6642,-0.664,-0.66,-0.6598,-0.6597,-0.6596,0,-0.6371,-0.6389,-0.6397,-0.641,-0.6416,-0.6429,-0.6443,-0.6442,-0.6488,-0.649,-0.6495,-0.6501,-0.6513,-0.6519,-0.6532,-0.6547,-0.6578,-0.6584,-0.6578,-0.6566,-0.6552,-0.6557,-0.6674,-0.6586,-0.6587,-0.6588,-0.6589,-0.6589,-0.63,-0.6294,-0.6319,-0.6325,-0.6341,-0.6354,-0.6351,-0.6376,-0.6381,-0.6394,-0.6418,-0.6419,-0.644,-0.6461,-0.6473,-0.6474,-0.6492,-0.6484,-0.6481,-0.6478,-0.6471,-0.6553,-0.6476,-0.6477,-0.6477,-0.6477,-0.6478,0,-0.6213,-0.6231,-0.6237,-0.6256,-0.6261,-0.6292,-0.6309,-0.631,-0.6311,-0.6329,-0.6336,-0.634,-0.6346,-0.6375,-0.6384,-0.6378,-0.6392,-0.6379,-0.6379,-0.6381,-0.6455,-0.6459,-0.6367,-0.6367,-0.6367,-0.6367,-0.6367,-0.6367,-0.6167,-0.6158,-0.6179,-0.6177,-0.6195,-0.6197,-0.6204,-0.6216,-0.623,-0.6233,-0.6239,-0.6258,-0.6279,-0.629,-0.6296,-0.6304,-0.6304,-0.6286,-0.6298,-0.6366,-0.6376,-0.6387,-0.639,-0.6286,-0.6286,-0.6225,-0.6224,-0.6224]}]]